K5TWC Weather Reports


time (UTC)temp
F
wind
direction
speed
knots
gust
knots
rain 1hr
in
rain 24hr
in
rain mn
in
humidity
%
barometer
mb
20260508105008 61 307 0.9 4.3 0.00 0.00 0.00 89 1016.1
20260508104528 61 197 0.0 2.6 0.00 0.00 0.00 89 1015.3
20260508104014 61 197 0.0 2.6 0.00 0.00 0.00 89 1015.1
20260508103506 61 197 0.0 2.6 0.00 0.00 0.00 89 1014.7
20260508103033 61 196 0.0 2.6 0.00 0.00 0.00 89 1014.4
20260508102513 61 184 0.0 0.9 0.00 0.00 0.00 89 1014.5
20260508102012 61 184 0.0 0.9 0.00 0.00 0.00 89 1014.5
20260508101528 61 182 0.0 1.7 0.00 0.00 0.00 89 1014.4
20260508101003 61 182 0.0 1.7 0.00 0.00 0.00 90 1014.2
20260508100503 61 161 0.0 1.7 0.00 0.00 0.00 90 1014.4
20260508100019 61 161 0.0 1.7 0.00 0.00 0.00 90 1014.4
20260508095509 61 161 0.0 0.0 0.00 0.00 0.00 90 1014.3
20260508095008 61 161 0.0 0.0 0.00 0.00 0.00 90 1014.4
20260508094524 61 161 0.0 0.0 0.00 0.00 0.00 89 1014.7
20260508094009 61 161 0.0 0.0 0.00 0.00 0.00 89 1014.7
20260508093507 61 161 0.0 0.0 0.00 0.00 0.00 89 1014.6
20260508093035 61 161 0.0 0.0 0.00 0.00 0.00 89 1014.5
20260508092510 61 161 0.0 0.0 0.00 0.00 0.00 89 1014.6
20260508092012 61 161 0.0 0.9 0.00 0.00 0.00 89 1014.6
20260508091533 61 161 0.0 1.7 0.00 0.00 0.00 89 1014.8
20260508091007 61 160 0.0 1.7 0.00 0.00 0.00 89 1014.7
20260508090510 61 160 0.0 1.7 0.00 0.00 0.00 89 1014.7
20260508090027 61 159 0.0 2.6 0.00 0.00 0.00 89 1014.6
20260508085507 61 157 0.0 4.3 0.00 0.00 0.00 89 1014.5
20260508085004 61 360 0.9 4.3 0.00 0.00 0.00 89 1014.4
20260508084520 61 360 0.0 4.3 0.00 0.00 0.00 89 1014.6
20260508084008 62 167 0.9 3.5 0.00 0.00 0.00 89 1014.8
20260508083508 62 360 0.0 0.9 0.00 0.00 0.00 88 1015.3
20260508083021 62 219 0.0 0.9 0.00 0.00 0.00 88 1015.5
20260508082517 62 224 0.0 0.0 0.00 0.00 0.00 88 1015.6
20260508082011 62 225 0.0 0.0 0.00 0.00 0.00 88 1015.7
20260508081526 61 225 0.0 0.0 0.00 0.00 0.00 88 1015.9
20260508081010 61 225 0.0 0.9 0.00 0.00 0.00 87 1016.2
20260508080507 61 225 0.0 0.9 0.00 0.00 0.00 87 1016.4
20260508080030 61 224 0.0 2.6 0.00 0.00 0.00 87 1016.4
20260508075509 62 225 0.0 2.6 0.00 0.00 0.00 87 1016.4
20260508075008 61 194 0.0 0.9 0.00 0.00 0.00 87 1016.2
20260508074527 61 194 0.0 0.0 0.00 0.00 0.00 87 1015.9
20260508074005 61 194 0.0 0.0 0.00 0.00 0.00 87 1015.5
20260508073505 61 194 0.0 0.0 0.00 0.00 0.00 87 1015.7
20260508073023 61 194 0.0 0.0 0.00 0.00 0.00 87 1015.8
20260508072508 61 194 0.0 0.9 0.00 0.00 0.00 87 1015.7
20260508072008 61 194 0.0 0.9 0.00 0.00 0.00 87 1015.8
20260508071524 61 194 0.0 0.0 0.00 0.00 0.00 87 1015.8
20260508071012 61 194 0.0 0.0 0.00 0.00 0.00 87 1015.9
20260508070507 61 194 0.0 0.0 0.00 0.00 0.00 87 1015.7
20260508070027 61 194 0.0 0.0 0.00 0.00 0.00 87 1016.0
20260508065509 61 194 0.0 0.0 0.00 0.00 0.00 87 1016.2
20260508065008 61 194 0.0 0.0 0.00 0.00 0.00 86 1016.2
20260508064510 61 194 0.0 0.0 0.00 0.00 0.00 86 1016.3
20260508064008 61 194 0.0 0.0 0.00 0.00 0.00 87 1016.3
20260508063504 61 194 0.0 0.0 0.00 0.00 0.00 87 1016.4
20260508063017 61 194 0.0 0.0 0.00 0.00 0.00 87 1016.4
20260508062507 61 194 0.0 0.0 0.00 0.00 0.00 87 1016.4
20260508062007 61 194 0.0 0.0 0.00 0.00 0.00 87 1016.5
20260508061524 61 194 0.0 0.0 0.00 0.00 0.00 87 1016.5
20260508061007 61 194 0.0 0.0 0.00 0.00 0.00 87 1016.4
20260508060507 61 194 0.0 0.0 0.00 0.00 0.00 87 1016.4
20260508060007 61 194 0.0 0.0 0.00 0.00 0.00 87 1016.4
20260508055503 61 194 0.0 0.0 0.00 0.00 0.00 86 1016.4
20260508055003 61 194 0.0 0.0 0.00 0.00 0.00 86 1016.4
20260508054508 61 194 0.0 0.0 0.00 0.00 0.00 86 1016.5
20260508054003 61 194 0.0 0.0 0.00 0.00 0.00 86 1016.5
20260508053503 61 194 0.0 0.0 0.00 0.00 0.00 85 1016.6
20260508053012 61 194 0.0 0.0 0.00 0.00 0.00 85 1016.6
20260508052506 61 194 0.0 0.0 0.00 0.00 0.00 85 1016.6
20260508052007 62 194 0.0 0.0 0.00 0.00 0.00 85 1016.5
20260508051517 62 194 0.0 0.0 0.00 0.00 0.00 84 1016.5
20260508051007 62 194 0.0 0.0 0.00 0.00 0.00 84 1016.5
20260508050506 62 194 0.0 0.0 0.00 0.00 0.00 83 1016.5
20260508050033 62 194 0.0 0.0 0.00 0.00 0.00 83 1016.5
20260508045504 62 194 0.0 0.0 0.00 0.00 0.00 82 1016.5
20260508045003 62 194 0.0 0.0 0.00 0.00 0.00 82 1016.7
20260508044505 62 194 0.0 0.0 0.00 0.00 0.00 82 1016.4
20260508044004 62 194 0.0 0.0 0.00 0.00 0.00 82 1016.4
20260508043502 62 194 0.0 0.0 0.00 0.00 0.00 82 1016.5
20260508043010 62 194 0.0 0.0 0.00 0.00 0.00 82 1016.3
20260508042505 62 194 0.0 0.0 0.00 0.00 0.00 82 1016.3
20260508042008 62 194 0.0 0.0 0.00 0.00 0.00 82 1016.4
20260508041515 62 194 0.0 0.0 0.00 0.00 0.00 81 1016.4
20260508041007 62 194 0.0 0.0 0.00 0.00 0.00 82 1016.4
20260508040507 62 194 0.0 0.0 0.00 0.00 0.00 81 1016.3
20260508040028 62 194 0.0 0.0 0.00 0.00 0.00 81 1016.2
20260508035507 62 194 0.0 0.0 0.00 0.00 0.00 80 1016.3
20260508035007 63 194 0.0 0.0 0.00 0.00 0.00 80 1016.3
20260508034523 63 194 0.0 0.0 0.00 0.00 0.00 80 1016.3
20260508034002 63 194 0.0 0.0 0.00 0.00 0.00 80 1016.3
20260508033502 63 194 0.0 0.0 0.00 0.00 0.00 79 1016.2
20260508033010 63 194 0.0 0.0 0.00 0.00 0.00 79 1016.2
20260508032503 64 194 0.0 0.0 0.00 0.00 0.00 78 1016.2
20260508032004 64 194 0.0 0.0 0.00 0.00 0.00 77 1016.3
20260508031513 64 194 0.0 0.0 0.00 0.00 0.00 76 1016.2
20260508031004 64 194 0.0 0.0 0.00 0.00 0.00 76 1016.1
20260508030507 64 194 0.0 0.0 0.00 0.00 0.00 76 1016.1
20260508030018 64 194 0.0 0.0 0.00 0.00 0.00 75 1016.0
20260508025507 65 194 0.0 0.0 0.00 0.00 0.00 74 1016.1
20260508025007 65 194 0.0 0.0 0.00 0.00 0.00 74 1016.1
20260508024523 65 194 0.0 0.0 0.00 0.00 0.00 74 1016.1
20260508024007 65 194 0.0 0.0 0.00 0.00 0.00 74 1016.2
20260508023507 65 194 0.0 0.0 0.00 0.00 0.00 73 1016.1
20260508023027 65 194 0.0 0.9 0.00 0.00 0.00 73 1016.0
20260508022506 65 194 0.0 0.9 0.00 0.00 0.00 73 1015.9
20260508022003 65 194 0.0 0.0 0.00 0.00 0.00 73 1015.8
20260508021508 65 194 0.0 0.0 0.00 0.00 0.00 72 1015.8
20260508021002 66 194 0.0 0.0 0.00 0.00 0.00 72 1015.8
20260508020503 66 194 0.0 0.0 0.00 0.00 0.00 72 1015.7
20260508020026 66 194 0.0 0.0 0.00 0.00 0.00 72 1015.6
20260508015504 66 194 0.0 0.0 0.00 0.00 0.00 71 1015.7
20260508015004 66 194 0.0 0.9 0.00 0.00 0.00 71 1015.7
20260508014520 66 194 0.0 0.9 0.00 0.00 0.00 71 1015.9
20260508014006 66 194 0.0 0.9 0.00 0.00 0.00 70 1015.8
20260508013506 67 194 0.0 0.9 0.00 0.00 0.00 70 1015.8
20260508013021 67 194 0.0 0.9 0.00 0.00 0.00 69 1015.6
20260508012510 67 194 0.0 0.9 0.00 0.00 0.00 69 1015.6
20260508012008 67 194 0.0 0.9 0.00 0.00 0.00 69 1015.6
20260508011525 67 194 0.0 0.9 0.00 0.00 0.00 69 1015.6
20260508011004 67 194 0.0 0.9 0.00 0.00 0.00 69 1015.6
20260508010503 67 194 0.0 0.9 0.00 0.00 0.00 68 1015.6
20260508010011 68 194 0.0 0.9 0.00 0.00 0.00 68 1015.5
20260508005505 68 194 0.0 2.6 0.00 0.00 0.00 68 1015.6
20260508005006 68 194 0.0 2.6 0.00 0.00 0.00 67 1015.6
20260508004515 68 360 0.0 1.7 0.00 0.00 0.00 67 1015.6
20260508004008 68 184 0.0 4.3 0.00 0.00 0.00 67 1015.6
20260508003504 68 180 0.0 4.3 0.00 0.00 0.00 67 1015.5
20260508003022 69 181 0.0 4.3 0.00 0.00 0.00 67 1015.4
20260508002508 69 167 0.0 5.2 0.00 0.00 0.00 67 1015.5
20260508002010 69 157 0.0 5.2 0.00 0.00 0.00 66 1015.6
20260508001541 69 144 0.0 5.2 0.00 0.00 0.00 66 1015.7
20260508001008 69 360 0.0 5.2 0.00 0.00 0.00 66 1015.7
20260508000511 69 158 0.9 5.2 0.00 0.00 0.00 65 1015.7
20260508000025 69 188 0.0 5.2 0.00 0.00 0.00 66 1015.7
20260507235504 69 360 0.0 8.7 0.00 0.00 0.00 65 1015.6
20260507235006 70 165 1.7 8.7 0.00 0.00 0.00 66 1015.5
20260507234516 70 360 0.9 7.0 0.00 0.00 0.00 66 1015.6
20260507234051 70 162 1.7 7.0 0.00 0.00 0.00 65 1015.7
20260507233504 70 360 0.0 8.7 0.00 0.00 0.00 66 1015.5
20260507233018 70 177 1.7 8.7 0.00 0.01 0.00 65 1015.6
20260507232506 70 176 0.9 7.8 0.00 0.01 0.00 64 1015.7
20260507232007 71 178 1.7 7.8 0.00 0.01 0.00 64 1015.8
20260507231535 71 360 0.9 5.2 0.00 0.01 0.00 64 1015.9
20260507231003 71 163 0.9 5.2 0.00 0.01 0.00 63 1015.8
20260507230506 72 360 0.9 7.0 0.00 0.01 0.00 62 1015.8
20260507230006 72 360 0.9 7.0 0.00 0.01 0.00 62 1015.7
20260507225505 72 360 0.0 5.2 0.00 0.01 0.00 62 1015.7
20260507225004 72 360 0.9 5.2 0.00 0.01 0.00 61 1015.7
20260507224532 73 153 1.7 5.2 0.00 0.01 0.00 60 1015.7
20260507224010 73 360 0.9 5.2 0.00 0.01 0.00 56 1015.9
20260507223508 73 127 0.0 1.7 0.00 0.02 0.00 56 1015.8
20260507223016 73 127 0.0 1.7 0.00 0.02 0.00 56 1015.9
20260507222504 73 128 0.0 1.7 0.00 0.02 0.00 55 1015.8
20260507222006 73 131 0.0 2.6 0.00 0.02 0.00 55 1015.8
20260507221521 74 132 0.0 2.6 0.00 0.02 0.00 54 1015.9
20260507221008 74 133 0.0 1.7 0.00 0.02 0.00 55 1016.1
20260507220508 73 132 0.0 3.5 0.00 0.03 0.00 54 1016.0
20260507220037 73 132 0.0 3.5 0.00 0.03 0.00 54 1015.9
20260507215504 73 130 0.9 3.5 0.00 0.03 0.00 54 1015.9
20260507215005 73 360 0.0 3.5 0.00 0.03 0.00 55 1016.1
20260507214509 73 360 0.9 3.5 0.00 0.03 0.00 54 1016.1
20260507214003 73 108 0.0 2.6 0.00 0.03 0.00 55 1016.2
20260507213504 74 91 0.0 2.6 0.00 0.03 0.00 52 1016.2
20260507213011 74 93 0.0 2.6 0.00 0.04 0.00 53 1016.3
20260507212505 73 19 0.0 2.6 0.00 0.04 0.00 53 1016.2
20260507212008 73 49 0.0 3.5 0.00 0.04 0.00 52 1016.3
20260507211529 73 360 0.9 3.5 0.00 0.04 0.00 52 1016.3
20260507211010 73 95 0.0 3.5 0.00 0.05 0.00 52 1016.3
20260507210507 74 360 0.0 3.5 0.00 0.05 0.00 52 1016.3
20260507210025 74 59 0.9 2.6 0.00 0.05 0.00 52 1016.3
20260507205508 74 5 0.0 4.3 0.00 0.05 0.00 52 1016.3
20260507205007 73 78 0.0 4.3 0.00 0.05 0.00 52 1016.3
20260507204524 73 55 0.9 4.3 0.00 0.05 0.00 53 1016.3
20260507204003 73 96 0.9 4.3 0.00 0.06 0.00 54 1016.3
20260507203504 73 360 0.0 5.2 0.00 0.06 0.00 53 1016.5
20260507203010 73 100 0.9 5.2 0.00 0.06 0.00 53 1016.6
20260507202503 73 121 0.0 5.2 0.00 0.06 0.00 53 1016.8
20260507202005 73 121 1.7 5.2 0.00 0.07 0.00 54 1016.9
20260507201531 72 99 1.7 5.2 0.00 0.07 0.00 54 1016.8
20260507201005 72 360 1.7 5.2 0.00 0.07 0.00 53 1017.0
20260507200504 72 46 2.6 6.1 0.00 0.07 0.00 54 1016.9
20260507200022 72 49 1.7 6.1 0.00 0.07 0.00 54 1017.0
20260507195507 72 123 1.7 7.0 0.00 0.07 0.00 54 1017.1
20260507195008 72 127 0.9 7.0 0.00 0.07 0.00 55 1017.2
20260507194526 72 15 0.9 7.8 0.00 0.08 0.00 55 1017.3
20260507194007 72 55 0.0 7.8 0.00 0.08 0.00 55 1017.3
20260507193507 72 31 1.7 5.2 0.00 0.08 0.00 55 1017.3
20260507193031 72 29 0.0 5.2 0.00 0.09 0.00 56 1017.3
20260507192502 72 316 0.9 5.2 0.00 0.09 0.00 57 1017.5
20260507192005 72 27 0.9 6.1 0.00 0.09 0.00 58 1017.5
20260507191514 71 47 2.6 6.1 0.00 0.09 0.00 57 1017.5
20260507191003 71 344 0.9 7.0 0.00 0.09 0.00 58 1017.6
20260507190504 70 123 1.7 7.0 0.00 0.09 0.00 57 1017.6
20260507190018 70 360 3.5 7.0 0.00 0.10 0.00 58 1017.7
20260507185508 71 66 0.0 6.1 0.00 0.10 0.00 57 1017.7
20260507185007 70 360 0.9 8.7 0.00 0.10 0.00 60 1017.7
20260507184518 70 329 0.9 8.7 0.00 0.11 0.00 59 1017.7
20260507184013 70 101 0.9 9.6 0.00 0.11 0.00 59 1017.8
20260507183510 70 35 1.7 9.6 0.00 0.11 0.00 59 1017.9
20260507183024 70 25 1.7 7.8 0.00 0.11 0.00 59 1017.8
20260507182509 70 39 0.9 7.8 0.00 0.12 0.00 59 1017.9
20260507182010 70 26 1.7 7.0 0.00 0.12 0.00 60 1018.0
20260507181526 69 53 0.0 7.8 0.00 0.13 0.00 61 1018.1
20260507181006 69 328 1.7 7.8 0.00 0.13 0.00 60 1018.3
20260507180506 69 59 1.7 8.7 0.00 0.13 0.00 59 1018.4
20260507180016 69 92 2.6 8.7 0.00 0.14 0.00 59 1018.3
20260507175503 69 101 1.7 7.0 0.00 0.14 0.00 59 1018.6
20260507175006 68 36 0.0 7.8 0.00 0.15 0.00 61 1018.6
20260507174532 68 319 0.9 9.6 0.00 0.15 0.00 60 1018.5
20260507174008 68 324 0.9 9.6 0.00 0.16 0.00 60 1018.6
20260507173509 68 344 0.0 7.8 0.00 0.16 0.00 62 1018.8
20260507173024 68 37 1.7 7.8 0.00 0.17 0.00 61 1018.9
20260507172508 68 42 0.9 5.2 0.00 0.17 0.00 61 1019.1
20260507172012 68 355 0.0 7.0 0.00 0.18 0.00 61 1019.4
20260507171528 67 28 0.0 7.0 0.00 0.19 0.00 61 1019.4
20260507171007 68 34 1.7 5.2 0.00 0.19 0.00 61 1019.5
20260507170512 67 328 0.9 5.2 0.00 0.20 0.00 60 1019.6
20260507170039 68 105 0.9 5.2 0.00 0.21 0.00 61 1019.8
20260507165502 67 41 0.9 4.3 0.00 0.22 0.00 62 1019.9
20260507165004 66 75 0.0 4.3 0.00 0.23 0.00 61 1019.9
20260507164514 66 360 0.9 4.3 0.00 0.23 0.00 63 1019.8
20260507164010 66 31 1.7 4.3 0.00 0.25 0.00 61 1020.0
20260507163506 66 67 1.7 5.2 0.00 0.25 0.00 63 1020.0
20260507163021 66 355 0.9 5.2 0.00 0.27 0.00 63 1020.1
20260507162508 66 296 0.9 5.2 0.00 0.28 0.00 64 1020.0
20260507162006 66 330 0.0 5.2 0.00 0.29 0.00 64 1020.0
20260507161523 66 36 0.9 5.2 0.00 0.31 0.00 65 1020.0
20260507161008 65 360 0.9 5.2 0.00 0.32 0.00 65 1020.1
20260507160508 65 56 1.7 5.2 0.00 0.34 0.00 65 1020.1
20260507160025 66 17 0.9 5.2 0.00 0.36 0.00 65 1020.0
20260507155510 65 360 0.0 6.1 0.00 0.38 0.00 66 1020.1
20260507155009 65 360 1.7 6.1 0.00 0.40 0.00 66 1020.1
20260507154528 65 94 0.9 4.3 0.00 0.43 0.00 68 1020.1
20260507154009 65 19 0.9 4.3 0.00 0.46 0.00 68 1020.2
20260507153505 65 71 0.9 4.3 0.00 0.49 0.00 67 1020.2
20260507153020 65 103 0.0 4.3 0.00 0.54 0.00 67 1020.3
20260507152511 64 74 0.9 4.3 0.00 0.54 0.00 69 1020.4
20260507152010 64 59 0.9 4.3 0.00 0.54 0.00 69 1020.4
20260507151523 64 20 0.0 2.6 0.00 0.54 0.00 69 1020.4
20260507151007 64 330 0.0 4.3 0.00 0.54 0.00 70 1020.5
20260507150509 64 352 0.9 4.3 0.00 0.54 0.00 68 1020.6
20260507150031 63 341 0.0 3.5 0.00 0.54 0.00 71 1020.5
20260507145508 63 315 0.0 3.5 0.00 0.54 0.00 71 1020.6
20260507145009 63 277 0.9 4.3 0.00 0.54 0.00 70 1020.6
20260507144525 62 21 0.0 4.3 0.00 0.54 0.00 73 1020.7
20260507144010 62 326 0.0 3.5 0.00 0.54 0.00 74 1020.7
20260507143511 62 352 0.9 3.5 0.00 0.54 0.00 74 1020.7
20260507143028 62 23 0.0 3.5 0.00 0.54 0.00 73 1020.6
20260507142504 62 321 0.9 3.5 0.00 0.54 0.00 74 1020.7
20260507142007 62 338 0.9 3.5 0.00 0.54 0.00 74 1020.7
20260507141518 61 43 0.0 3.5 0.00 0.54 0.00 76 1020.8
20260507141007 60 307 0.0 1.7 0.00 0.54 0.00 78 1020.8
20260507140508 60 307 0.0 0.9 0.00 0.54 0.00 78 1021.0
20260507140023 59 307 0.0 0.9 0.00 0.54 0.00 79 1021.1
20260507135510 59 307 0.0 0.9 0.00 0.54 0.00 79 1021.0
20260507135008 59 307 0.0 0.9 0.00 0.54 0.00 81 1021.0
20260507134526 59 307 0.0 0.9 0.00 0.54 0.00 81 1021.1
20260507134013 58 306 0.0 0.9 0.00 0.54 0.00 84 1021.0
20260507133509 57 306 0.0 1.7 0.00 0.54 0.00 85 1021.0
20260507133026 56 306 0.0 1.7 0.00 0.54 0.00 86 1021.1
20260507132512 56 306 0.0 1.7 0.00 0.54 0.00 87 1021.1
20260507132010 56 306 0.0 1.7 0.00 0.54 0.00 89 1021.0
20260507131535 55 306 0.0 1.7 0.00 0.54 0.00 90 1021.1
20260507131008 55 306 0.0 2.6 0.00 0.54 0.00 91 1021.0
20260507130506 55 304 0.0 2.6 0.00 0.54 0.00 92 1021.0
20260507130011 54 304 0.0 1.7 0.00 0.54 0.00 93 1021.0
20260507125503 54 304 0.0 3.5 0.00 0.54 0.00 92 1020.9
20260507125005 53 303 0.0 3.5 0.00 0.54 0.00 93 1020.8
20260507124509 53 302 0.0 2.6 0.00 0.54 0.00 93 1020.7
20260507124006 53 302 0.0 2.6 0.00 0.54 0.00 93 1020.8
20260507123505 53 302 0.0 1.7 0.00 0.54 0.00 93 1020.8
20260507123008 52 302 0.0 1.7 0.00 0.54 0.00 93 1020.8
20260507122504 52 303 0.0 0.9 0.00 0.54 0.00 93 1020.8
20260507122004 52 303 0.0 0.9 0.00 0.54 0.00 93 1020.7
20260507121512 52 303 0.0 0.0 0.00 0.54 0.00 93 1020.7
20260507121005 52 303 0.0 0.0 0.00 0.54 0.00 93 1020.5
20260507120503 51 302 0.0 0.0 0.00 0.54 0.00 93 1020.4
20260507120023 51 303 0.0 0.0 0.00 0.54 0.00 93 1020.3
20260507115504 51 303 0.0 1.7 0.00 0.54 0.00 92 1020.2
20260507115004 51 303 0.0 1.7 0.00 0.54 0.00 92 1020.1
20260507114511 51 303 0.0 0.0 0.00 0.54 0.00 92 1020.1
20260507114003 51 303 0.0 0.0 0.00 0.54 0.00 92 1020.0
20260507113503 51 303 0.0 0.0 0.00 0.54 0.00 92 1019.9
20260507113006 52 302 0.0 1.7 0.00 0.54 0.00 92 1020.0
20260507112505 52 303 0.0 1.7 0.00 0.54 0.00 92 1020.0
20260507112005 52 303 0.0 2.6 0.00 0.54 0.00 92 1020.1
20260507111509 52 303 0.9 2.6 0.00 0.54 0.00 92 1019.9
20260507111003 52 306 0.0 2.6 0.00 0.54 0.00 92 1019.6
20260507110504 52 11 0.0 1.7 0.00 0.54 0.00 92 1019.5
20260507110012 52 35 0.0 0.0 0.00 0.54 0.00 92 1019.4
20260507105505 52 43 0.0 0.0 0.00 0.54 0.00 92 1019.3